Regional Weather Roundup
Issued by NWS Grand Forks, ND

Home | Current Version | Previous Version | Graphics & Text | Print | Product List | Glossary On
Versions: 1 2 3 4 5 6 7 8 9 10 11 12 13 14 15 16 17 18 19 20 21 22 23 24 25 26 27 28 29 30 31 32 33 34 35 36 37 38 39 40 41 42 43 44 45 46 47 48 49 50
000
ASUS43 KFGF 220510
RWRFGF
PRAIRIE TO PINES  WEATHER ROUNDUP
NATIONAL WEATHER SERVICE EASTERN NORTH DAKOTA/GRAND FORKS ND
1100 PM CST TUE FEB 21 2017

 **SATELLITE DATA USED TO AUGMENT SKY COVER AT AUTOMATED STATIONS**
 *****  WEATHER ACROSS EASTERN NORTH DAKOTA  *****

CITY           SKY/WX    TMP DP  RH WIND       PRES   REMARKS
GRAND FORKS    CLOUDY    33  29  85 W3        29.67F FOG
GRAND FRKS AFB CLOUDY    32  32 100 SW3       29.68S FOG
DEVILS LAKE    NOT AVBL
FARGO          FAIR      36  35  96 NW7       29.68F
WAHPETON ARPT    N/A     39  36  87 CALM      29.68F
$$

 ***** WEATHER ACROSS CENTRAL AND WESTERN NORTH DAKOTA  *****

CITY           SKY/WX    TMP DP  RH WIND       PRES   REMARKS
BISMARCK       FAIR      35  34  96 CALM      29.67F
MINOT          CLOUDY    34  32  92 W5        29.67F
JAMESTOWN      FAIR      35  33  92 CALM      29.65F
MINOT AFB      CLOUDY    32  32 100 NW7       29.67S FOG
GARRISON         N/A     35  34  96 NW9       29.67S
WILLISTON      CLOUDY    34  32  92 N13       29.67F WCI  25
DICKINSON      FAIR      33  32  96 S3        29.65R
HETTINGER      FAIR      36  34  92 CALM      29.67R
$$

 *****  OTHER AIRPORT OBSERVATIONS IN OUR AREA  *****

CITY           SKY/WX    TMP DP  RH WIND       PRES   REMARKS
WALHALLA       NOT AVBL
GRAFTON AIRPOR CLOUDY    30  32 100 N3        29.69F FOG
VALLEY CITY AR MOCLDY    36  36 100 SW3       29.68F
CANDO          NOT AVBL
CAVALIER APRT  FOG       30  30 100 N5        29.69S VSB<1/4
GWINNER        FAIR      39  37  93 SE3       29.69S
SHEYENNE NWR     N/A     39  37  93 CALM      29.95S
ROLLA          FOG       32  32 100 N9        29.67R VSB 1/4 WCI  24
 ***** THE ABOVE OBSERVATIONS ARE NON NWS ARE NOT QUALITY
       CONTROLLED AND MAY MIS-REPORT RAIN FOR SNOW...
$$

  *****  WEATHER ACROSS NORTHERN MINNESOTA  *****

CITY           SKY/WX    TMP DP  RH WIND       PRES   REMARKS
FLAG ISLAND    CLOUDY    34  30  86 N5        29.67F
WARROAD        FAIR      30  27  86 E3        29.67F FOG
ROSEAU         FAIR      32  27  80 CALM      29.67F
HALLOCK        FOG       30  28  93 CALM      29.66F VSB 1/4
THF RVR FALLS  MOCLDY    33  32  96 CALM      29.66F FOG
BAUDETTE       FAIR      32  31  96 N5        29.66F
WASKISH        CLOUDY    36  34  93 CALM      29.66F
CROOKSTON      CLOUDY    32  32 100 CALM      29.67F FOG
GREENBUSH NDAW   N/A     28  30 100 S2          N/A
$$
  *****  WEATHER ACROSS CENTRAL AND WEST MINNESOTA  *****

CITY           SKY/WX    TMP DP  RH WIND       PRES   REMARKS
FOSSTON        CLOUDY    34  34 100 CALM      29.67S FOG
BEMIDJI        CLOUDY    37  36  97 CALM      29.66F
PARK RAPIDS    MOCLDY    33  31  92 W3        29.66F
ELBOW LAKE     FAIR      36  36 100 E3        29.68R
WADENA         FAIR      36  34  93 CALM      29.67F
DETROIT LAKES  FAIR      34  32  93 CALM      29.70S
MOORHEAD       FAIR      36  34  93 CALM      29.69F
FERGUS FALLS   FAIR      37  37 100 NE3       29.72S
MORRIS MN      FAIR      41  39  93 E7        29.66R
STAPLES        FAIR      36  34  93 CALM      29.68F
$$
  *****  WEATHER ELSEWHERE ACROSS MINNESOTA  *****

CITY           SKY/WX    TMP DP  RH WIND       PRES   REMARKS
DULUTH         MOCLDY    42  37  82 W8        29.66F
INTRNTL FALLS  FAIR      34  31  88 CALM      29.66F
ELY            FAIR      37  34  87 CALM      29.67R
CLOQUET        FAIR      43  37  81 CALM      29.66F
WHEATON        MOCLDY    37  36  93 CALM      29.70R
BRAINERD       FAIR      33  32  96 CALM      29.68R
HIBBING        LGT RAIN  38  36  92 N8        29.65F
ALEXANDRIA     FAIR      37  37 100 CALM      29.67F
SAINT CLOUD    FAIR      37  37 100 CALM      29.67S FOG
MINNEAPOLIS    FAIR      48  42  80 CALM      29.68F
$$

  *****  WEATHER ACROSS SOUTH DAKOTA  *****

CITY           SKY/WX    TMP DP  RH WIND       PRES   REMARKS
SIOUX FALLS    FAIR      42  37  82 CALM      29.65F
BROOKINGS      LGT RAIN  47  40  76 E10       29.66S
WATERTOWN      FAIR      49  37  63 E3        29.61F
HURON          FAIR      50  40  68 SE12      29.59F
SISSETON         N/A     39  37  92 N13       29.69R
ABERDEEN       MOCLDY    42  35  76 N9        29.67R
MITCHELL       FAIR      52  39  61 S9        29.62F
PIERRE         FAIR      49  37  63 NW12      29.63F
MOBRIDGE       FAIR      44  34  67 SE7       29.64F
RAPID CITY     CLOUDY    50  36  58 SW9       29.72F
$$

  *****  SOME WEATHER IN NEARBY STATES *****

CITY           SKY/WX    TMP DP  RH WIND       PRES   REMARKS
GLASGOW MT     CLOUDY    33  31  92 NE6       29.71S FOG
GREAT FALLS MT FOG       34  33  96 N9        29.69R VSB 1/4
CHEYENNE WY    FAIR      40  17  39 SW9       29.89F
SCOTTSBLUFF NE FAIR      50  21  32 VRB3      29.78F
OMAHA NE       FAIR      49  36  61 S12       29.77F
DES MOINES IA  FAIR      51  33  50 S9        29.80F
DAVENPORT IA   FAIR      47  42  83 S6        29.85S
CHICAGO IL     FAIR      50  48  93 CALM      29.85F FOG
EAU CLAIRE WI  FAIR      46  38  73 S7        29.70F
LA CROSSE WI   FAIR      50  41  71 S12       29.75F
$$

  *****  SOME NATIONAL WEATHER *****

CITY           SKY/WX    TMP DP  RH WIND       PRES   REMARKS
LA GUARDIA NY  CLOUDY    45  33  63 SW10        N/A
RALEIGH NC     MOCLDY    55  45  68 SE9       30.09F
ATLANTA GA     LGT RAIN  61  59  93 E10       29.94F
NEW ORLEANS LA FAIR      58  55  90 NW5       29.86F
OKLAHOMA CITY  FAIR      48  38  68 CALM      29.95F
ALBUQUERQUE NM MOCLDY    49  29  46 SE6       30.22S
SALT LAKE CITY FLURRIES  34  33  96 SE8       30.10F
LOS ANGELES CA MOCLDY    59  57  93 NW6       30.23R
BOISE ID       MOCLDY    41  29  62 W6        30.02R
SEATTLE WA     CLOUDY    42  37  82 E7        30.10R
$$

*** WEATHER ACROSS MANITOBA...SASKATCHEWAN AND ONTARIO ***
                ***ONTARIO***

CITY           SKY/WX    TMP DP  RH WIND       PRES   REMARKS
GERALDTON      MOCLDY    30  28  93 CALM      29.67F
THUNDER BAY    MOCLDY    28  28 100 CALM      29.66F
SIOUX LOOKOUT  CLOUDY    34  30  86 VRB2      29.67F
TORONTO        CLOUDY    39  37  93 E3        29.93F
BIG TROUT LK   CLOUDY    25  19  80 NW21G32   29.57R WCI  10
PICKLE LAKE    NOT AVBL
DRYDEN         MOCLDY    34  30  86 N3        29.66F
KENORA         MOCLDY    32  30  93 CALM      29.67F
$$
                *** MANITOBA***

CITY           SKY/WX    TMP DP  RH WIND       PRES   REMARKS
BRANDON        CLOUDY    32  30  93 CALM      29.70R
DAUPHIN        CLOUDY    32  28  86 NW3       29.73F
ISLAND LAKE    FLURRIES  28  25  86 W8        29.62S WCI  20
PILOT MOUND      N/A     30  30 100 NE5         N/A
THE PAS        CLOUDY    30  21  69 NW17      29.69S WCI  18
THOMPSON       FLURRIES   9   3  78 NW9       29.66R WCI  -5
WINNIPEG       CLOUDY    32  32 100 CALM      29.71S
LYNN LAKE      FLURRIES   5   1  85 NW6       29.70R WCI  -6
CHURCHILL      LGT SNOW   5   1  85 NE26G35   29.66R VSB 1   WCI -18
GILLAM         CLEAR      3  -2  78 W13       29.59R WCI -14
$$
                ***SASKATCHEWAN***

CITY           SKY/WX    TMP DP  RH WIND       PRES   REMARKS
ESTEVAN        FOG       32  32 100 CALM      29.71R VSB 1/8
KINDERSLEY     CLOUDY    28  25  86 S3        29.76S
LLOYDMINSTER   MOCLDY    27  27 100 W7        29.75R WCI  19
PRINCE ALBERT  CLOUDY    30  25  80 W7        29.75R WCI  23
REGINA         CLOUDY    32  25  74 N12       29.75S WCI  23
YORKTON        CLOUDY    32  25  74 NW10      29.73S WCI  24
N. BATTLEFORD  CLOUDY    32  27  80 W6        29.78S
LA RONGE       LGT SNOW  23  16  74 NW12      29.77R WCI  12
SASKATOON      CLOUDY    32  25  74 SW2       29.79R
SWIFT CURRENT  CLOUDY    30  27  86 NE6       29.75R WCI  24
$$
NOTE: THESE ARE AUTOMATED STATIONS WITH LIMITED QUALITY CONTROL
      "FAIR" INDICATES FEW OR NO CLOUDS BELOW 12,000 FEET WITH NO
      SIGNIFICANT WEATHER AND/OR OBSTRUCTIONS TO VISIBILITY.
      SKY/WX - SKY CONDITION AND SIGNIFICANT WEATHER.
      TMP - AIR TEMPERATURE.    DP   - DEWPOINT TEMPERATURE.
      RH  - RELATIVE HUMIDITY.  PRES - PRESSURE.
      HX  - HEAT INDEX.         WCI  - WIND CHILL INDEX.
$




USA.gov is the U.S. government's official web portal to all federal, state and local government web resources and services.